Precipitable_Water
0.42 0.44 0.44 0.44 0.44 0.46 0.46 0.46 0.46 0.46 0.46 0.46 0.46 0.46 0.46 0.46 0.46 0.48 0.48 0.48 0.46 0.46 0.44 0.44 0.44 0.44 0.44 0.44 0.44 0.44 0.44 0.44 0.44 0.44 0.44 0.44 0.44 0.44 0.44 0.44 0.44 0.44 0.42 0.42 0.42 0.40 0.40 0.40 0.40 0.38 0.38 0.38 0.38 0.38 0.38 0.38 0.38 0.38 0.38 0.40 0.42 0.42 0.44 0.44 0.46 0.48 0.50 0.52 0.54
0.44 0.44 0.46 0.46 0.46 0.46 0.44 0.44 0.44 0.44 0.46 0.46 0.46 0.46 0.46 0.46 0.46 0.46 0.46 0.48 0.46 0.46 0.46 0.44 0.44 0.44 0.44 0.44 0.44 0.44 0.44 0.44 0.44 0.44 0.44 0.44 0.44 0.44 0.44 0.44 0.44 0.44 0.42 0.42 0.42 0.40 0.40 0.40 0.40 0.38 0.38 0.38 0.38 0.38 0.38 0.38 0.38 0.38 0.38 0.38 0.40 0.42 0.44 0.44 0.46 0.46 0.48 0.50 0.54
0.44 0.46 0.46 0.46 0.46 0.46 0.44 0.44 0.44 0.44 0.44 0.46 0.46 0.46 0.46 0.46 0.46 0.46 0.46 0.46 0.46 0.46 0.44 0.44 0.44 0.44 0.44 0.44 0.44 0.44 0.44 0.44 0.44 0.44 0.44 0.44 0.44 0.44 0.44 0.44 0.44 0.44 0.42 0.42 0.42 0.42 0.40 0.40 0.40 0.40 0.38 0.38 0.38 0.38 0.38 0.40 0.40 0.40 0.40 0.38 0.42 0.42 0.44 0.44 0.46 0.48 0.48 0.50 0.52
0.46 0.46 0.46 0.46 0.46 0.46 0.46 0.44 0.44 0.44 0.44 0.46 0.46 0.46 0.46 0.46 0.46 0.44 0.44 0.46 0.44 0.44 0.44 0.44 0.44 0.44 0.44 0.44 0.44 0.44 0.46 0.46 0.46 0.44 0.44 0.44 0.44 0.44 0.44 0.44 0.44 0.44 0.42 0.42 0.42 0.42 0.42 0.42 0.42 0.40 0.40 0.40 0.38 0.38 0.40 0.40 0.40 0.40 0.40 0.42 0.44 0.44 0.44 0.46 0.46 0.48 0.48 0.48 0.48
0.48 0.48 0.48 0.48 0.48 0.48 0.48 0.48 0.46 0.46 0.46 0.46 0.46 0.46 0.46 0.46 0.46 0.44 0.44 0.44 0.44 0.44 0.44 0.44 0.44 0.44 0.44 0.44 0.44 0.44 0.44 0.44 0.44 0.44 0.44 0.42 0.42 0.42 0.42 0.42 0.42 0.42 0.42 0.42 0.42 0.42 0.42 0.42 0.42 0.42 0.42 0.42 0.42 0.40 0.42 0.42 0.42 0.42 0.42 0.44 0.44 0.46 0.46 0.46 0.46 0.48 0.48 0.48 0.48
0.48 0.50 0.50 0.50 0.50 0.50 0.50 0.50 0.50 0.48 0.48 0.48 0.46 0.46 0.46 0.46 0.44 0.44 0.44 0.42 0.42 0.44 0.44 0.44 0.44 0.44 0.42 0.42 0.42 0.42 0.42 0.42 0.42 0.42 0.42 0.42 0.42 0.42 0.40 0.40 0.40 0.40 0.40 0.40 0.40 0.40 0.40 0.40 0.42 0.42 0.42 0.44 0.44 0.44 0.44 0.44 0.44 0.44 0.44 0.44 0.44 0.46 0.46 0.46 0.48 0.48 0.48 0.46 0.46
0.50 0.50 0.52 0.52 0.52 0.52 0.50 0.50 0.50 0.50 0.50 0.48 0.48 0.46 0.46 0.46 0.44 0.44 0.44 0.44 0.44 0.44 0.44 0.44 0.42 0.40 0.40 0.40 0.40 0.40 0.40 0.40 0.40 0.40 0.40 0.40 0.40 0.40 0.40 0.40 0.40 0.40 0.40 0.40 0.40 0.40 0.40 0.40 0.40 0.40 0.42 0.44 0.44 0.46 0.46 0.46 0.46 0.46 0.46 0.46 0.46 0.46 0.46 0.46 0.46 0.46 0.46 0.46 0.44
0.54 0.52 0.52 0.54 0.52 0.52 0.52 0.52 0.52 0.52 0.50 0.50 0.48 0.48 0.46 0.46 0.44 0.44 0.44 0.44 0.44 0.42 0.42 0.42 0.40 0.40 0.40 0.38 0.38 0.38 0.38 0.38 0.38 0.38 0.38 0.38 0.38 0.38 0.38 0.38 0.38 0.38 0.38 0.38 0.38 0.40 0.40 0.40 0.40 0.40 0.40 0.42 0.44 0.46 0.46 0.48 0.46 0.46 0.46 0.46 0.48 0.48 0.48 0.48 0.48 0.48 0.46 0.44 0.44
0.56 0.56 0.56 0.54 0.54 0.54 0.54 0.54 0.54 0.52 0.52 0.50 0.50 0.48 0.48 0.46 0.46 0.44 0.44 0.44 0.42 0.42 0.42 0.40 0.38 0.38 0.38 0.36 0.36 0.36 0.36 0.36 0.36 0.36 0.36 0.36 0.36 0.36 0.38 0.38 0.38 0.38 0.38 0.40 0.40 0.40 0.40 0.40 0.40 0.40 0.40 0.42 0.42 0.44 0.46 0.46 0.46 0.46 0.46 0.46 0.48 0.48 0.50 0.50 0.48 0.48 0.48 0.48 0.44
0.56 0.56 0.56 0.56 0.56 0.56 0.56 0.54 0.54 0.54 0.52 0.52 0.52 0.50 0.50 0.48 0.46 0.44 0.42 0.42 0.42 0.40 0.40 0.38 0.38 0.36 0.36 0.36 0.34 0.34 0.34 0.34 0.34 0.34 0.34 0.34 0.34 0.36 0.36 0.36 0.36 0.38 0.38 0.40 0.40 0.40 0.40 0.40 0.40 0.40 0.40 0.42 0.42 0.42 0.44 0.46 0.44 0.44 0.44 0.46 0.46 0.48 0.48 0.50 0.50 0.48 0.48 0.48 0.48
0.58 0.58 0.58 0.58 0.58 0.58 0.56 0.56 0.56 0.54 0.54 0.52 0.52 0.50 0.50 0.48 0.46 0.44 0.42 0.42 0.40 0.38 0.38 0.38 0.36 0.34 0.34 0.34 0.34 0.34 0.34 0.34 0.34 0.34 0.34 0.34 0.34 0.34 0.36 0.36 0.38 0.38 0.38 0.40 0.40 0.42 0.42 0.40 0.40 0.40 0.40 0.40 0.42 0.42 0.42 0.44 0.42 0.42 0.42 0.44 0.44 0.46 0.46 0.48 0.48 0.48 0.48 0.48 0.48
0.60 0.58 0.58 0.58 0.58 0.58 0.56 0.56 0.54 0.54 0.52 0.52 0.50 0.50 0.48 0.48 0.46 0.44 0.42 0.40 0.38 0.38 0.38 0.36 0.36 0.34 0.34 0.34 0.34 0.34 0.34 0.34 0.34 0.34 0.34 0.34 0.34 0.36 0.36 0.36 0.38 0.38 0.40 0.42 0.42 0.42 0.42 0.42 0.42 0.42 0.42 0.42 0.42 0.42 0.42 0.42 0.42 0.42 0.42 0.42 0.42 0.42 0.42 0.44 0.46 0.46 0.46 0.46 0.46
0.62 0.60 0.58 0.58 0.58 0.58 0.56 0.56 0.54 0.54 0.52 0.50 0.50 0.48 0.48 0.46 0.44 0.42 0.40 0.40 0.38 0.38 0.38 0.38 0.36 0.36 0.36 0.36 0.36 0.36 0.36 0.36 0.36 0.36 0.36 0.36 0.36 0.36 0.38 0.38 0.38 0.40 0.42 0.44 0.44 0.44 0.44 0.44 0.44 0.44 0.44 0.44 0.44 0.44 0.44 0.46 0.44 0.44 0.42 0.42 0.42 0.42 0.42 0.42 0.44 0.44 0.44 0.44 0.44
0.62 0.62 0.60 0.58 0.58 0.56 0.56 0.54 0.54 0.52 0.52 0.50 0.50 0.48 0.46 0.46 0.44 0.42 0.40 0.40 0.38 0.38 0.38 0.38 0.38 0.38 0.38 0.38 0.38 0.38 0.38 0.38 0.38 0.38 0.38 0.40 0.40 0.40 0.40 0.40 0.42 0.44 0.46 0.46 0.48 0.48 0.48 0.48 0.48 0.46 0.46 0.46 0.46 0.46 0.46 0.48 0.46 0.46 0.44 0.44 0.42 0.42 0.42 0.42 0.42 0.42 0.42 0.42 0.42
0.64 0.62 0.60 0.58 0.58 0.56 0.56 0.54 0.54 0.52 0.50 0.50 0.48 0.48 0.46 0.44 0.44 0.42 0.42 0.40 0.40 0.40 0.40 0.40 0.40 0.40 0.40 0.40 0.40 0.40 0.40 0.40 0.40 0.40 0.42 0.42 0.42 0.42 0.44 0.44 0.46 0.48 0.50 0.50 0.50 0.50 0.50 0.50 0.50 0.48 0.48 0.48 0.48 0.48 0.48 0.48 0.48 0.48 0.46 0.46 0.44 0.44 0.44 0.44 0.44 0.44 0.44 0.42 0.42
0.64 0.62 0.58 0.58 0.56 0.56 0.54 0.54 0.52 0.52 0.50 0.48 0.48 0.46 0.46 0.44 0.44 0.44 0.42 0.42 0.42 0.42 0.40 0.40 0.40 0.42 0.42 0.42 0.42 0.42 0.42 0.42 0.42 0.42 0.42 0.44 0.44 0.46 0.46 0.48 0.48 0.50 0.50 0.52 0.52 0.52 0.52 0.52 0.52 0.52 0.50 0.50 0.50 0.50 0.50 0.50 0.50 0.48 0.48 0.48 0.46 0.46 0.46 0.46 0.44 0.44 0.44 0.44 0.42
0.62 0.60 0.58 0.56 0.56 0.54 0.54 0.54 0.52 0.50 0.48 0.48 0.48 0.46 0.46 0.46 0.44 0.44 0.44 0.44 0.42 0.42 0.42 0.42 0.42 0.42 0.42 0.44 0.44 0.44 0.42 0.44 0.44 0.44 0.44 0.44 0.46 0.46 0.48 0.48 0.50 0.50 0.52 0.52 0.52 0.52 0.52 0.54 0.52 0.52 0.52 0.52 0.50 0.50 0.50 0.50 0.50 0.50 0.50 0.50 0.48 0.48 0.46 0.46 0.46 0.46 0.46 0.44 0.44
0.60 0.58 0.58 0.56 0.56 0.54 0.54 0.52 0.52 0.50 0.48 0.48 0.48 0.48 0.48 0.46 0.46 0.46 0.44 0.44 0.44 0.42 0.42 0.42 0.42 0.44 0.44 0.42 0.44 0.44 0.42 0.42 0.42 0.44 0.44 0.46 0.46 0.48 0.48 0.50 0.50 0.52 0.52 0.52 0.52 0.52 0.52 0.52 0.52 0.52 0.52 0.52 0.50 0.50 0.50 0.50 0.50 0.50 0.50 0.50 0.50 0.48 0.48 0.48 0.46 0.46 0.46 0.44 0.44
0.58 0.58 0.56 0.56 0.56 0.54 0.52 0.52 0.50 0.50 0.50 0.50 0.50 0.50 0.48 0.48 0.48 0.46 0.46 0.44 0.44 0.44 0.44 0.42 0.44 0.44 0.44 0.42 0.42 0.42 0.44 0.42 0.42 0.44 0.44 0.46 0.46 0.48 0.48 0.50 0.50 0.50 0.50 0.50 0.50 0.52 0.52 0.52 0.52 0.52 0.50 0.50 0.50 0.50 0.50 0.50 0.50 0.50 0.50 0.50 0.50 0.48 0.48 0.48 0.46 0.46 0.46 0.46 0.44
0.58 0.56 0.56 0.56 0.54 0.52 0.52 0.50 0.50 0.50 0.50 0.52 0.52 0.52 0.50 0.50 0.50 0.48 0.46 0.46 0.44 0.44 0.44 0.44 0.42 0.42 0.42 0.42 0.42 0.44 0.44 0.44 0.44 0.44 0.46 0.46 0.46 0.48 0.48 0.50 0.50 0.50 0.50 0.50 0.50 0.52 0.52 0.52 0.50 0.50 0.50 0.50 0.48 0.48 0.48 0.48 0.48 0.48 0.48 0.48 0.48 0.48 0.48 0.48 0.46 0.46 0.46 0.46 0.46
0.58 0.56 0.56 0.54 0.52 0.52 0.50 0.50 0.50 0.52 0.52 0.52 0.52 0.52 0.52 0.52 0.50 0.48 0.48 0.46 0.46 0.44 0.44 0.44 0.42 0.42 0.42 0.42 0.42 0.44 0.44 0.44 0.46 0.46 0.46 0.46 0.46 0.48 0.50 0.50 0.50 0.50 0.50 0.50 0.50 0.50 0.50 0.50 0.50 0.50 0.48 0.48 0.48 0.48 0.48 0.48 0.48 0.48 0.48 0.48 0.48 0.48 0.48 0.48 0.48 0.48 0.46 0.46 0.48
0.56 0.56 0.54 0.52 0.52 0.52 0.52 0.52 0.52 0.54 0.54 0.54 0.54 0.54 0.54 0.52 0.52 0.50 0.48 0.46 0.46 0.44 0.44 0.44 0.44 0.42 0.42 0.42 0.44 0.44 0.44 0.46 0.46 0.46 0.46 0.46 0.46 0.48 0.50 0.50 0.50 0.48 0.48 0.50 0.50 0.50 0.50 0.50 0.50 0.48 0.48 0.48 0.46 0.46 0.46 0.46 0.46 0.46 0.46 0.46 0.46 0.48 0.48 0.48 0.48 0.48 0.48 0.48 0.48
0.56 0.54 0.54 0.52 0.52 0.52 0.52 0.52 0.54 0.54 0.54 0.54 0.54 0.54 0.54 0.54 0.52 0.52 0.50 0.48 0.46 0.46 0.44 0.44 0.44 0.44 0.44 0.44 0.44 0.44 0.44 0.46 0.46 0.46 0.46 0.46 0.46 0.48 0.48 0.48 0.48 0.48 0.48 0.48 0.48 0.50 0.50 0.48 0.48 0.48 0.48 0.46 0.46 0.46 0.46 0.44 0.44 0.44 0.44 0.46 0.46 0.46 0.46 0.46 0.46 0.48 0.48 0.48 0.50
0.54 0.54 0.54 0.52 0.52 0.52 0.54 0.54 0.54 0.56 0.56 0.54 0.54 0.54 0.54 0.54 0.52 0.52 0.50 0.48 0.48 0.46 0.46 0.44 0.44 0.44 0.46 0.46 0.46 0.46 0.44 0.44 0.44 0.44 0.44 0.44 0.46 0.46 0.48 0.48 0.46 0.46 0.48 0.48 0.48 0.48 0.48 0.48 0.48 0.46 0.46 0.46 0.46 0.44 0.44 0.44 0.44 0.44 0.44 0.44 0.44 0.44 0.44 0.44 0.46 0.46 0.46 0.48 0.48
0.54 0.54 0.54 0.54 0.54 0.54 0.54 0.54 0.54 0.54 0.54 0.54 0.54 0.54 0.54 0.52 0.52 0.52 0.50 0.48 0.48 0.46 0.46 0.46 0.46 0.46 0.46 0.46 0.46 0.46 0.44 0.44 0.44 0.44 0.44 0.44 0.44 0.46 0.46 0.46 0.46 0.46 0.48 0.48 0.48 0.48 0.48 0.48 0.46 0.46 0.44 0.44 0.44 0.44 0.44 0.42 0.42 0.42 0.42 0.42 0.42 0.42 0.42 0.42 0.44 0.44 0.46 0.46 0.48
0.54 0.54 0.54 0.54 0.54 0.54 0.54 0.54 0.54 0.54 0.54 0.54 0.52 0.52 0.52 0.52 0.52 0.52 0.50 0.48 0.48 0.48 0.48 0.46 0.46 0.46 0.46 0.46 0.46 0.44 0.44 0.44 0.44 0.44 0.44 0.42 0.44 0.44 0.44 0.44 0.46 0.46 0.46 0.46 0.46 0.46 0.46 0.46 0.46 0.44 0.44 0.44 0.42 0.42 0.42 0.42 0.40 0.40 0.40 0.40 0.38 0.38 0.38 0.40 0.40 0.42 0.44 0.44 0.46
0.54 0.54 0.54 0.54 0.54 0.54 0.54 0.56 0.54 0.54 0.54 0.52 0.52 0.52 0.50 0.50 0.50 0.50 0.50 0.48 0.48 0.48 0.48 0.48 0.46 0.46 0.46 0.46 0.44 0.44 0.44 0.44 0.44 0.44 0.42 0.42 0.42 0.42 0.42 0.44 0.44 0.46 0.46 0.46 0.46 0.46 0.46 0.46 0.44 0.44 0.42 0.42 0.42 0.40 0.40 0.40 0.40 0.38 0.38 0.38 0.38 0.38 0.38 0.38 0.38 0.40 0.40 0.42 0.44
0.56 0.56 0.56 0.56 0.54 0.54 0.56 0.56 0.54 0.54 0.52 0.52 0.50 0.50 0.50 0.50 0.50 0.50 0.50 0.48 0.48 0.48 0.48 0.48 0.46 0.46 0.46 0.44 0.44 0.44 0.44 0.44 0.44 0.44 0.42 0.42 0.42 0.42 0.42 0.42 0.44 0.44 0.46 0.44 0.44 0.44 0.44 0.42 0.42 0.42 0.40 0.40 0.40 0.40 0.38 0.38 0.38 0.38 0.36 0.36 0.36 0.36 0.36 0.36 0.36 0.38 0.38 0.40 0.40
0.56 0.56 0.56 0.56 0.54 0.54 0.56 0.56 0.54 0.52 0.52 0.50 0.50 0.50 0.48 0.48 0.48 0.48 0.48 0.48 0.46 0.46 0.46 0.46 0.46 0.46 0.44 0.44 0.44 0.44 0.44 0.42 0.42 0.42 0.42 0.42 0.42 0.42 0.42 0.42 0.42 0.44 0.44 0.44 0.44 0.42 0.42 0.40 0.40 0.38 0.38 0.38 0.38 0.38 0.38 0.36 0.36 0.36 0.36 0.36 0.34 0.34 0.36 0.36 0.36 0.36 0.36 0.36 0.38
0.58 0.56 0.56 0.56 0.56 0.56 0.54 0.54 0.54 0.52 0.52 0.50 0.48 0.48 0.48 0.46 0.46 0.46 0.46 0.46 0.46 0.46 0.46 0.46 0.44 0.44 0.44 0.44 0.44 0.44 0.42 0.42 0.42 0.42 0.42 0.40 0.40 0.40 0.40 0.40 0.42 0.42 0.44 0.44 0.42 0.40 0.40 0.38 0.38 0.36 0.36 0.36 0.36 0.36 0.36 0.36 0.34 0.34 0.34 0.32 0.32 0.32 0.34 0.34 0.34 0.34 0.34 0.34 0.36
0.56 0.56 0.56 0.56 0.56 0.54 0.54 0.54 0.52 0.52 0.50 0.50 0.48 0.46 0.46 0.46 0.44 0.44 0.44 0.44 0.44 0.44 0.44 0.44 0.44 0.44 0.44 0.42 0.42 0.42 0.42 0.40 0.40 0.40 0.40 0.40 0.40 0.38 0.40 0.40 0.40 0.42 0.42 0.44 0.44 0.42 0.38 0.38 0.38 0.36 0.36 0.34 0.34 0.34 0.34 0.34 0.34 0.32 0.32 0.32 0.32 0.32 0.32 0.32 0.32 0.32 0.32 0.32 0.34
0.56 0.56 0.56 0.54 0.54 0.54 0.52 0.52 0.52 0.50 0.48 0.48 0.46 0.46 0.44 0.42 0.42 0.44 0.44 0.44 0.44 0.42 0.42 0.42 0.42 0.42 0.42 0.42 0.42 0.40 0.40 0.40 0.40 0.40 0.38 0.38 0.38 0.38 0.38 0.38 0.38 0.40 0.42 0.42 0.42 0.42 0.40 0.38 0.36 0.36 0.34 0.34 0.32 0.32 0.32 0.32 0.32 0.32 0.32 0.30 0.30 0.30 0.30 0.30 0.30 0.30 0.30 0.32 0.32
0.56 0.54 0.54 0.54 0.52 0.52 0.52 0.52 0.50 0.48 0.46 0.44 0.44 0.42 0.42 0.42 0.42 0.42 0.42 0.44 0.44 0.42 0.40 0.40 0.40 0.40 0.40 0.40 0.40 0.38 0.38 0.38 0.38 0.38 0.38 0.38 0.36 0.36 0.36 0.36 0.36 0.38 0.40 0.40 0.40 0.40 0.40 0.36 0.36 0.34 0.34 0.32 0.32 0.30 0.30 0.30 0.30 0.30 0.28 0.28 0.30 0.28 0.28 0.28 0.28 0.28 0.28 0.30 0.30
0.54 0.54 0.54 0.52 0.52 0.52 0.50 0.50 0.48 0.46 0.44 0.44 0.42 0.42 0.40 0.40 0.40 0.40 0.42 0.42 0.42 0.42 0.40 0.40 0.40 0.38 0.38 0.38 0.38 0.38 0.36 0.36 0.36 0.36 0.36 0.36 0.34 0.34 0.34 0.34 0.34 0.36 0.38 0.36 0.36 0.38 0.38 0.38 0.34 0.32 0.32 0.30 0.30 0.30 0.28 0.28 0.28 0.28 0.26 0.26 0.26 0.28 0.28 0.26 0.26 0.26 0.26 0.28 0.26
0.54 0.54 0.52 0.52 0.50 0.50 0.50 0.50 0.46 0.44 0.44 0.42 0.42 0.40 0.40 0.38 0.38 0.38 0.40 0.42 0.42 0.40 0.38 0.38 0.38 0.38 0.38 0.38 0.36 0.36 0.36 0.36 0.34 0.34 0.34 0.32 0.32 0.32 0.32 0.32 0.32 0.34 0.34 0.34 0.34 0.36 0.36 0.36 0.34 0.32 0.30 0.28 0.28 0.26 0.26 0.26 0.26 0.24 0.24 0.24 0.24 0.24 0.24 0.26 0.24 0.24 0.24 0.26 0.24
0.54 0.52 0.52 0.50 0.50 0.50 0.48 0.48 0.44 0.44 0.42 0.42 0.42 0.40 0.40 0.38 0.38 0.38 0.40 0.42 0.42 0.38 0.38 0.38 0.38 0.36 0.36 0.36 0.36 0.36 0.34 0.34 0.34 0.32 0.32 0.32 0.30 0.30 0.30 0.30 0.30 0.30 0.30 0.32 0.32 0.34 0.34 0.34 0.34 0.32 0.30 0.26 0.26 0.24 0.24 0.24 0.22 0.22 0.22 0.22 0.22 0.22 0.22 0.22 0.22 0.24 0.22 0.22 0.22
0.52 0.52 0.52 0.50 0.50 0.48 0.48 0.44 0.42 0.42 0.42 0.42 0.42 0.40 0.38 0.36 0.36 0.40 0.42 0.42 0.40 0.38 0.36 0.36 0.34 0.34 0.34 0.34 0.34 0.34 0.34 0.34 0.32 0.32 0.30 0.30 0.28 0.28 0.28 0.28 0.28 0.28 0.28 0.30 0.30 0.30 0.32 0.32 0.32 0.30 0.28 0.26 0.24 0.22 0.22 0.20 0.20 0.20 0.20 0.20 0.20 0.20 0.20 0.22 0.22 0.22 0.22 0.22 0.22
0.52 0.52 0.50 0.50 0.48 0.48 0.46 0.42 0.42 0.40 0.40 0.42 0.40 0.40 0.38 0.36 0.38 0.40 0.42 0.40 0.38 0.36 0.34 0.34 0.34 0.34 0.32 0.32 0.32 0.34 0.34 0.32 0.32 0.30 0.28 0.28 0.28 0.26 0.26 0.26 0.26 0.26 0.28 0.28 0.28 0.30 0.30 0.30 0.30 0.28 0.26 0.24 0.22 0.22 0.20 0.18 0.18 0.18 0.18 0.18 0.18 0.18 0.20 0.20 0.20 0.20 0.20 0.20 0.20
0.50 0.50 0.50 0.48 0.48 0.46 0.44 0.40 0.40 0.40 0.40 0.40 0.38 0.38 0.36 0.34 0.38 0.40 0.40 0.38 0.38 0.36 0.34 0.32 0.32 0.32 0.32 0.32 0.32 0.32 0.32 0.32 0.30 0.30 0.28 0.26 0.26 0.26 0.26 0.24 0.24 0.24 0.26 0.26 0.26 0.28 0.28 0.30 0.30 0.28 0.26 0.24 0.22 0.22 0.20 0.18 0.18 0.16 0.16 0.16 0.16 0.16 0.18 0.18 0.18 0.18 0.18 0.18 0.18
0.50 0.48 0.48 0.48 0.46 0.46 0.42 0.38 0.38 0.38 0.38 0.38 0.36 0.34 0.34 0.34 0.38 0.38 0.38 0.38 0.36 0.36 0.34 0.32 0.32 0.32 0.32 0.32 0.30 0.30 0.30 0.30 0.30 0.28 0.28 0.26 0.26 0.26 0.26 0.24 0.24 0.22 0.24 0.24 0.26 0.26 0.26 0.28 0.28 0.28 0.26 0.24 0.22 0.20 0.20 0.18 0.16 0.16 0.16 0.14 0.14 0.14 0.14 0.16 0.16 0.16 0.14 0.14 0.16
0.48 0.48 0.46 0.46 0.44 0.44 0.42 0.36 0.36 0.36 0.36 0.36 0.36 0.34 0.34 0.34 0.38 0.38 0.38 0.36 0.36 0.36 0.34 0.32 0.32 0.32 0.32 0.32 0.30 0.30 0.28 0.28 0.28 0.28 0.28 0.26 0.26 0.26 0.24 0.24 0.24 0.22 0.22 0.22 0.24 0.24 0.26 0.26 0.26 0.26 0.26 0.24 0.22 0.20 0.18 0.18 0.16 0.14 0.14 0.14 0.14 0.12 0.12 0.12 0.14 0.12 0.12 0.12 0.12
Wind_Speed
23 23 23 24 24 24 24 25 25 26 26 25 24 24 24 25 25 25 25 25 25 25 25 24 24 24 24 24 23 23 24 24 24 24 24 24 24 24 24 24 24 24 25 25 26 26 26 26 26 27 27 27 27 27 26 26 26 26 26 26 26 25 25 25 25 25 25 25 25
24 25 25 25 25 25 25 26 26 26 26 26 25 25 25 25 25 24 24 24 25 25 24 24 24 24 23 24 24 24 24 24 24 24 24 24 24 24 24 24 24 25 25 26 26 26 26 26 27 27 27 27 26 26 26 26 26 26 25 25 25 25 25 25 25 25 25 25 25
26 26 27 27 27 26 26 27 27 27 27 27 26 25 25 25 25 24 24 24 24 24 24 24 24 23 23 23 23 24 24 24 24 24 24 24 24 24 24 24 25 25 26 26 26 26 26 26 27 27 27 27 26 26 26 26 26 25 25 25 25 25 25 25 25 25 25 25 25
26 27 27 27 27 27 27 27 28 28 28 27 26 25 25 25 24 24 23 23 24 24 24 24 23 23 23 23 23 24 24 24 24 24 24 23 24 24 24 24 25 25 26 26 26 26 26 26 26 26 27 26 26 26 26 26 26 26 26 26 25 25 25 25 25 25 25 25 25
27 27 27 26 26 27 27 27 28 28 27 27 26 25 25 24 24 23 23 23 23 23 24 24 23 23 23 23 23 24 24 24 24 24 24 24 24 24 24 25 25 25 25 26 26 26 26 26 26 26 26 27 27 27 26 26 26 26 26 26 26 26 26 25 25 25 25 25 25
27 27 26 26 26 26 26 26 26 26 26 26 26 25 24 24 23 23 23 23 23 23 23 23 23 24 24 24 24 24 24 24 24 24 24 24 25 25 25 25 25 25 26 26 26 26 26 26 26 26 26 27 27 27 27 27 27 27 26 26 26 26 26 26 25 25 25 25 25
27 27 26 25 25 24 25 25 25 25 25 25 25 25 24 24 23 23 23 23 23 23 24 24 24 24 24 24 25 25 25 25 25 25 25 25 25 25 26 26 26 26 26 26 26 26 26 26 26 27 27 27 27 27 27 27 27 27 27 27 27 27 26 26 26 26 26 26 26
27 26 25 25 24 24 24 24 24 24 25 25 25 24 24 24 24 24 24 24 24 24 24 24 24 24 25 25 25 25 25 26 26 26 26 26 26 26 27 27 27 27 27 27 27 27 27 27 27 27 27 27 27 27 27 27 27 27 28 28 28 27 27 27 26 26 26 26 26
26 26 25 24 24 23 23 24 24 24 24 24 24 24 24 24 24 24 24 24 24 24 24 24 24 25 25 25 26 26 26 26 26 26 26 27 27 27 27 28 28 28 28 28 28 28 28 28 28 28 28 28 28 28 28 28 28 28 28 28 28 28 27 27 27 27 27 27 27
25 25 24 24 24 23 23 24 24 24 24 24 24 24 24 24 24 24 24 24 24 24 24 24 24 25 25 26 26 26 26 26 27 27 27 27 27 28 28 28 28 29 29 29 28 28 28 28 28 28 28 28 28 28 28 28 28 28 28 28 28 28 28 28 27 27 27 27 27
24 24 24 23 23 23 23 23 24 24 24 24 24 24 24 24 24 24 24 24 24 24 24 24 24 25 25 26 26 26 26 26 26 27 27 27 28 28 28 29 29 29 29 29 29 28 28 28 28 29 29 28 29 29 29 29 29 29 29 28 28 28 28 28 28 28 27 27 27
24 23 23 23 23 23 23 23 24 24 24 24 24 24 24 24 24 24 24 23 23 24 24 24 24 24 25 25 25 26 26 26 26 26 27 27 27 28 28 29 29 29 29 29 29 28 28 28 28 28 28 28 28 29 29 29 29 29 29 29 28 28 28 28 28 28 28 27 27
23 23 23 23 23 23 23 23 24 24 23 23 24 24 24 24 23 23 23 23 23 23 23 23 24 24 24 25 25 25 25 25 25 26 26 26 27 27 28 28 28 28 29 28 28 28 28 28 28 28 28 28 28 28 29 29 29 29 29 29 29 29 29 29 29 28 28 28 27
23 23 23 23 23 23 23 23 23 23 23 23 23 23 23 23 23 23 22 23 23 23 23 23 23 24 24 24 24 24 24 25 25 25 25 26 26 26 27 27 27 28 28 27 27 27 27 27 27 28 28 28 28 28 28 28 29 29 29 29 29 29 29 29 29 29 28 28 27
24 23 23 23 23 23 23 23 22 22 22 22 22 22 22 22 22 22 22 22 22 22 22 23 23 23 23 23 23 24 24 24 24 24 25 25 25 26 26 26 26 26 26 26 26 25 25 26 26 26 26 27 27 27 28 28 28 28 29 29 29 30 30 30 30 29 29 28 28
25 24 23 23 23 23 22 22 22 22 22 22 22 22 22 22 22 22 22 22 22 22 22 22 22 22 22 23 23 23 23 23 23 24 24 24 24 24 25 25 25 25 25 24 24 24 24 24 24 24 24 25 25 26 26 26 27 27 28 28 29 29 30 30 30 30 29 29 28
25 24 24 23 23 23 22 22 22 22 22 22 22 22 22 22 22 22 22 21 21 21 21 21 21 22 22 22 22 23 23 23 23 23 23 23 23 23 23 23 23 23 23 22 22 22 22 22 22 23 23 23 24 24 24 25 25 25 26 27 27 28 28 29 29 29 29 29 28
25 24 24 24 23 23 22 22 22 22 22 22 22 22 22 22 21 21 21 21 21 21 21 21 21 21 22 22 22 22 22 22 23 22 22 22 22 22 22 22 22 22 22 22 22 22 22 22 22 22 22 22 22 23 23 23 23 24 24 24 25 26 26 27 27 28 28 28 27
25 24 24 23 23 23 23 23 22 22 22 22 22 22 22 21 21 21 21 21 20 20 21 21 21 21 21 22 22 22 22 22 22 22 22 22 22 22 22 22 22 22 22 22 21 21 21 22 22 22 22 22 22 22 22 22 23 23 23 23 23 24 24 25 25 26 26 26 26
24 24 24 24 24 24 23 23 22 22 22 22 22 22 21 21 21 21 21 21 21 20 20 21 21 21 21 21 22 22 22 21 21 21 21 21 21 21 21 21 21 21 21 21 21 21 22 22 22 22 22 22 22 22 22 22 22 22 23 23 23 23 24 24 24 24 24 24 24
23 23 23 24 24 24 24 23 23 22 22 22 22 22 21 21 21 21 21 21 21 20 20 20 20 20 21 21 21 21 21 21 21 20 20 21 21 21 21 21 21 21 21 21 21 21 21 21 21 21 21 21 21 21 22 22 22 22 23 23 23 23 24 24 24 24 23 23 23
23 23 23 24 24 24 24 23 23 23 23 22 22 22 21 21 21 21 21 21 20 20 20 20 20 20 20 21 21 21 21 20 20 20 20 21 21 21 21 21 21 21 21 21 21 21 21 20 20 21 21 21 21 21 21 22 22 22 23 23 23 23 23 23 23 23 23 23 22
23 23 23 24 24 24 23 23 23 23 23 22 22 22 21 21 21 21 21 21 20 20 20 20 20 20 20 20 20 20 20 20 20 20 20 20 21 21 21 20 20 20 20 21 20 20 20 20 20 21 21 21 21 21 21 22 22 22 22 22 22 22 22 22 22 22 22 22 22
22 23 23 23 23 23 23 23 23 23 23 22 22 22 21 21 21 21 21 21 20 20 20 20 20 20 20 20 20 19 19 20 20 20 20 20 20 20 20 20 20 20 20 20 20 20 20 20 21 21 21 21 21 21 21 22 22 22 22 22 22 22 22 22 22 22 22 22 22
22 22 22 22 22 22 23 23 23 22 22 22 22 21 21 21 21 21 21 21 20 20 20 20 20 20 20 19 19 19 19 20 20 20 20 19 19 19 19 19 20 20 20 20 19 19 20 20 21 21 21 21 21 21 21 22 22 22 22 22 22 22 22 22 22 22 22 22 21
22 21 21 22 22 22 22 22 22 22 22 21 21 21 21 21 21 21 21 21 20 20 20 20 20 20 19 19 19 19 19 19 19 19 19 19 19 19 19 19 19 20 20 20 20 20 20 20 20 21 21 21 22 22 22 22 22 22 22 22 22 22 22 22 22 22 22 22 22
21 21 21 21 22 22 22 22 22 21 21 21 21 20 21 21 21 21 20 20 20 20 20 20 19 19 19 19 19 19 19 19 19 19 18 18 18 19 19 19 20 20 20 21 21 21 21 21 21 21 22 22 22 22 22 22 22 22 22 22 22 22 22 22 22 22 22 22 22
20 20 21 21 21 21 22 21 21 21 20 20 20 20 20 20 20 20 20 20 20 20 19 19 19 19 19 19 18 19 19 19 18 18 18 19 19 19 19 20 20 20 20 21 21 21 21 21 21 22 22 22 23 22 22 22 22 22 22 22 22 22 22 22 22 22 22 22 22
20 20 20 21 21 21 21 21 20 20 20 20 20 20 20 20 20 20 20 20 19 19 19 19 18 18 18 18 18 18 18 18 18 19 19 19 19 19 19 20 20 20 20 20 21 21 21 22 22 22 22 23 23 23 22 22 22 22 22 22 22 22 22 22 22 22 22 22 22
19 19 20 20 20 20 20 20 20 19 19 19 20 20 20 20 20 19 19 19 19 19 19 18 18 18 18 18 18 18 18 18 19 19 19 19 19 19 19 20 20 20 20 20 21 21 21 21 22 22 22 22 22 22 22 22 22 22 22 22 22 22 22 22 22 22 22 22 22
19 19 19 19 19 20 20 19 19 19 19 19 19 19 19 19 19 19 19 19 19 19 18 18 18 18 18 18 18 18 18 18 19 19 19 19 19 19 20 20 21 21 21 21 21 21 21 21 21 21 22 22 22 22 22 22 22 22 22 22 22 22 22 22 22 22 22 22 22
19 19 19 19 19 19 19 19 19 19 19 19 19 19 19 19 19 19 19 19 19 19 18 18 18 18 18 18 18 18 18 18 19 19 20 20 20 20 20 21 21 21 21 21 21 21 21 21 21 21 21 22 22 22 22 22 22 22 22 22 22 22 22 22 22 22 22 22 22
19 18 18 18 18 18 18 18 18 18 18 18 19 19 18 18 18 18 18 18 18 18 18 18 18 18 18 18 18 18 18 19 19 20 20 20 20 20 21 21 21 22 22 22 22 21 21 21 21 22 22 22 22 23 23 22 22 22 22 22 22 22 22 22 22 22 22 21 21
19 19 19 18 18 18 18 18 18 18 18 18 18 18 18 18 18 18 18 18 18 18 18 19 19 19 18 18 19 19 19 19 19 20 20 20 21 21 21 21 22 22 22 22 22 22 22 21 21 22 22 22 23 23 23 22 22 22 22 22 22 22 22 22 22 22 22 22 21
18 18 19 19 19 19 18 18 18 18 18 18 19 18 18 18 18 18 19 19 19 19 18 18 18 18 18 18 19 19 19 19 20 20 20 21 21 21 21 21 22 22 22 22 23 23 22 22 22 22 22 22 22 23 22 22 22 22 22 22 22 22 22 22 22 22 22 22 22
17 18 18 18 18 18 18 18 18 18 18 19 19 19 18 19 19 19 19 19 19 19 19 18 18 18 19 19 19 19 19 19 20 20 20 20 21 21 21 22 22 22 23 23 23 23 23 23 22 22 22 22 22 22 22 22 22 22 22 22 22 22 23 23 23 23 23 23 23
17 17 17 17 17 18 18 18 18 18 18 18 18 18 19 19 20 20 19 19 18 18 18 19 19 19 19 19 19 19 19 19 20 20 20 20 21 21 21 22 22 22 23 23 23 24 24 23 23 23 22 22 22 22 22 22 22 22 22 22 23 23 23 23 23 23 24 24 24
16 16 16 16 16 16 16 17 17 17 17 17 17 18 18 19 19 19 19 18 18 18 18 19 19 19 20 20 20 20 20 20 20 20 20 20 21 21 21 22 22 23 23 24 24 24 24 24 23 23 22 22 22 22 22 22 23 23 23 23 23 23 24 24 24 24 24 24 24
15 15 15 15 15 15 16 16 16 16 16 17 17 17 17 18 18 18 18 18 18 18 18 18 19 20 20 20 20 20 20 20 20 20 20 20 21 21 21 22 22 23 23 24 24 24 24 24 23 22 22 22 22 22 22 23 23 23 23 23 24 24 24 24 24 25 25 25 25
15 15 15 15 15 15 16 16 16 16 16 16 17 17 17 18 18 18 18 18 18 18 19 19 19 20 20 20 20 20 21 21 21 21 21 21 21 21 21 22 23 23 24 24 24 24 24 23 23 22 22 22 22 22 22 23 23 23 23 23 24 24 24 24 24 25 25 25 25
15 15 15 15 15 16 16 16 16 16 16 16 17 17 18 18 18 18 18 19 19 19 19 20 20 20 21 21 21 21 21 21 21 21 21 21 22 22 22 23 23 23 24 24 24 24 24 23 23 22 22 21 22 22 22 22 23 23 23 23 23 23 23 24 24 24 24 24 24
Wind_Direction
277 278 279 281 283 285 287 289 290 291 291 291 289 287 284 282 280 278 277 276 274 271 267 264 263 262 262 263 264 265 265 266 266 265 265 265 265 266 267 267 269 270 270 271 272 273 274 275 275 276 276 276 276 276 275 275 275 275 275 274 274 274 273 273 272 272 272 272 273
278 279 280 281 283 284 286 288 289 289 289 289 288 286 283 281 279 277 276 275 273 270 267 264 263 262 263 264 265 266 266 267 267 266 266 266 267 267 268 269 270 271 272 272 273 274 275 275 276 276 276 276 276 276 275 275 274 274 274 273 273 273 273 272 272 272 272 273 274
277 278 279 281 282 284 286 288 288 288 288 288 287 285 283 280 278 276 275 274 271 268 265 263 262 262 263 264 266 266 267 267 267 267 268 268 269 269 270 271 271 272 273 274 274 275 275 276 276 276 276 276 276 275 275 274 274 274 273 273 273 273 273 272 272 272 273 273 274
276 277 279 281 283 285 287 288 288 288 287 287 286 284 282 280 278 276 274 273 270 267 264 262 262 262 263 265 266 267 267 267 268 268 269 270 271 271 271 272 273 273 274 275 275 276 276 276 276 276 276 276 275 275 274 274 273 273 273 273 273 273 272 272 272 272 273 273 274
276 278 280 283 285 286 287 287 287 287 287 286 285 283 281 280 278 276 274 272 269 265 263 261 261 262 263 265 266 267 268 268 269 269 270 271 271 272 272 272 273 274 275 276 276 277 277 277 277 277 277 276 275 275 274 273 273 273 273 273 273 272 272 272 272 272 272 273 274
277 280 283 285 287 288 288 287 287 286 286 285 284 282 280 279 277 276 274 272 268 265 262 261 262 263 265 266 267 267 268 269 269 270 271 271 272 272 272 273 273 274 275 276 277 277 278 278 278 278 277 277 276 275 274 274 273 273 273 272 272 272 272 271 271 272 272 273 274
279 281 284 286 287 288 288 287 286 286 285 284 283 281 280 278 277 275 274 271 268 265 263 263 263 265 266 267 267 268 268 269 270 270 270 271 271 271 272 272 273 274 275 276 277 278 278 279 279 279 278 277 276 275 274 274 273 273 273 272 272 272 272 271 271 272 272 273 274
280 282 284 285 286 287 287 286 286 286 285 284 282 281 279 278 276 275 273 271 268 266 264 264 265 266 266 267 268 268 269 269 269 269 269 270 270 271 271 272 273 274 275 276 277 278 278 278 278 278 278 277 276 275 274 273 273 273 273 273 272 272 272 271 272 272 273 273 274
280 281 283 284 285 285 286 286 286 286 285 284 282 281 279 277 276 274 273 270 268 266 265 265 265 266 267 267 268 268 269 269 269 269 269 269 269 270 271 272 273 274 275 276 277 278 278 278 278 278 277 276 275 274 273 273 272 272 272 272 272 272 272 272 272 273 273 274 274
279 280 282 283 284 285 286 286 287 286 286 285 283 281 279 278 276 274 272 270 268 267 266 266 266 267 268 268 269 269 269 269 268 268 269 269 269 270 271 272 273 275 276 277 278 278 279 279 278 278 277 276 275 273 273 272 272 272 272 272 272 272 272 272 273 273 274 274 274
278 279 281 283 285 286 286 287 287 287 286 285 283 281 279 278 276 274 273 271 269 268 268 268 268 269 269 270 270 270 269 269 269 269 269 269 270 270 271 272 274 275 276 277 278 279 279 279 279 278 277 276 274 273 273 272 272 272 272 272 272 272 272 273 273 273 274 274 274
277 279 281 283 285 286 287 287 287 287 286 285 283 281 279 277 276 275 273 272 271 270 270 270 271 271 271 271 271 271 270 270 270 270 270 270 270 271 272 273 274 275 276 277 278 278 278 278 278 278 277 275 274 273 272 272 272 272 272 272 272 272 272 273 273 273 273 273 274
278 279 281 283 285 286 287 287 287 286 285 284 282 281 279 277 276 275 274 273 272 272 272 273 273 273 273 272 272 272 271 271 271 270 270 271 271 272 273 273 274 275 276 277 277 278 278 278 277 277 276 275 274 273 272 272 272 272 272 272 272 272 272 272 272 273 272 272 272
278 280 281 283 284 285 285 286 285 285 284 282 281 280 279 278 277 276 275 274 274 274 274 275 274 274 274 274 273 273 272 272 271 271 271 272 272 273 274 274 275 276 276 277 277 278 278 278 277 277 276 275 274 273 273 272 272 272 272 272 272 272 272 272 272 272 272 271 271
279 280 281 282 283 284 284 284 284 283 282 281 281 280 280 279 278 277 277 276 276 276 276 276 276 275 275 274 274 274 273 273 272 273 273 273 274 274 275 275 276 276 277 277 278 278 278 279 278 278 277 276 275 274 274 273 273 273 273 272 272 272 272 271 271 271 271 271 271
279 279 280 281 282 284 284 284 283 282 282 281 281 281 280 280 279 279 278 278 278 278 277 277 277 277 276 276 275 275 274 274 274 274 274 275 275 276 276 276 277 277 277 277 278 279 280 280 280 280 279 278 277 276 275 275 275 274 274 273 273 272 272 272 271 271 271 271 271
277 278 279 281 283 284 285 284 283 282 281 281 281 281 281 281 281 280 280 280 279 279 279 279 279 278 278 277 277 276 275 275 275 275 275 276 276 276 277 277 277 277 277 277 278 280 281 282 282 282 281 280 279 278 278 277 277 276 276 275 274 273 273 272 272 272 272 272 272
274 276 279 281 284 285 286 285 284 283 282 282 282 282 282 282 281 281 281 281 281 281 281 281 280 280 279 279 278 277 276 275 275 275 275 276 276 276 277 277 277 276 277 277 279 280 281 281 282 282 282 281 280 279 279 279 278 278 277 277 276 275 274 274 273 273 273 273 272
273 275 278 281 284 286 286 286 285 284 283 283 283 283 282 282 282 282 282 282 282 282 282 282 281 281 280 279 278 277 277 276 275 275 275 275 276 276 276 276 276 276 276 277 278 279 280 280 281 281 281 281 280 280 279 279 279 279 278 278 277 277 276 276 275 275 274 274 273
272 275 278 281 283 285 286 286 286 286 285 284 283 283 282 282 282 282 283 283 283 283 283 282 282 281 281 280 279 278 276 276 275 274 274 275 275 275 276 276 276 276 276 277 278 279 279 280 281 281 282 281 281 280 280 279 279 278 278 278 277 277 277 277 276 276 275 275 274
272 274 277 280 282 284 286 287 288 287 286 285 283 282 282 282 282 283 284 284 284 284 283 283 283 282 281 280 279 278 276 275 274 274 273 274 274 275 275 276 276 277 277 278 279 279 280 280 281 282 283 283 282 282 281 280 279 278 278 278 277 277 277 276 276 276 276 276 275
272 274 276 278 281 284 286 288 289 288 287 285 284 283 282 282 283 284 285 285 285 285 284 284 283 283 282 280 279 277 276 275 274 273 273 273 274 274 275 275 276 277 279 280 280 280 280 280 281 283 284 284 284 283 282 281 280 279 279 278 278 277 277 277 277 276 276 276 275
271 273 275 278 281 284 287 289 289 288 287 285 284 283 282 282 283 285 286 286 286 286 285 284 284 283 282 280 279 278 276 275 274 273 273 273 274 274 275 275 276 277 279 280 281 280 280 281 282 284 284 285 285 284 283 282 281 280 279 279 279 278 278 278 278 277 277 276 276
271 273 276 279 282 285 287 289 289 288 287 285 284 283 282 283 284 285 286 286 286 286 285 284 284 283 282 281 280 278 277 276 275 274 274 274 274 274 275 276 276 277 279 281 281 281 281 282 283 283 284 285 285 285 284 283 282 282 281 280 279 279 279 278 278 277 277 276 275
271 274 277 280 282 285 287 288 288 287 286 284 283 282 282 283 284 285 286 286 286 286 285 285 284 283 282 281 280 279 278 277 277 276 275 275 275 275 275 276 277 278 279 282 283 284 283 283 283 283 284 284 285 285 284 284 284 283 282 281 280 279 278 278 277 277 276 276 275
272 274 277 279 281 284 286 287 287 286 285 283 282 282 282 283 284 285 286 286 286 286 285 285 284 283 283 282 281 280 279 278 278 276 275 275 275 276 276 276 277 279 281 283 285 286 286 286 286 285 285 285 286 286 286 286 285 284 283 282 281 279 278 277 276 276 276 276 276
272 274 276 278 280 282 284 285 285 284 283 282 282 282 283 284 285 285 285 286 286 285 285 285 284 284 284 283 282 281 280 279 277 276 275 275 276 277 277 277 279 281 283 284 285 287 287 288 288 288 288 287 287 288 288 287 286 285 284 283 282 280 279 278 277 277 277 277 277
273 274 276 278 279 281 283 283 283 282 282 281 282 282 283 284 285 285 286 286 286 285 285 284 285 285 284 282 282 281 280 279 277 276 276 276 277 277 277 278 280 283 285 286 287 287 288 289 289 289 289 289 288 289 289 289 288 286 285 283 282 280 279 278 277 277 277 277 277
273 275 277 279 280 282 282 282 281 281 281 281 282 283 284 285 286 286 286 286 286 286 285 285 285 284 283 282 281 280 279 278 278 277 277 277 277 278 278 279 281 285 288 289 289 289 289 289 289 290 290 290 289 289 290 290 289 287 286 284 282 280 279 278 277 277 277 277 277
275 277 279 281 282 282 282 282 281 281 282 282 283 284 285 286 287 287 287 287 287 286 285 284 284 283 283 283 282 281 279 278 278 278 278 278 279 279 280 280 282 286 289 291 291 290 290 290 290 291 291 291 291 291 291 290 289 288 286 284 282 280 278 277 277 277 276 276 276
277 280 282 283 284 283 283 282 282 283 283 284 285 286 287 288 288 288 288 287 287 286 285 284 283 283 283 283 283 282 281 280 279 279 279 280 281 281 282 283 284 286 290 292 293 292 291 291 291 291 292 292 292 291 291 291 290 288 286 284 282 279 277 276 276 275 275 275 275
279 282 284 286 286 285 285 284 284 285 286 287 287 288 288 289 289 289 289 288 287 286 285 284 284 283 283 282 283 283 283 282 281 281 281 282 283 284 285 286 286 288 290 293 294 294 293 292 292 292 293 293 292 291 291 290 289 288 286 283 281 279 277 275 274 274 274 274 274
280 283 285 286 287 287 287 287 287 287 288 289 289 289 289 289 289 290 290 289 288 287 286 285 284 284 283 283 283 284 284 284 283 283 284 285 286 287 288 288 288 290 292 293 294 294 294 294 293 293 293 292 291 291 290 290 288 287 285 282 280 277 276 275 274 273 273 273 273
280 283 284 285 286 286 287 288 288 289 290 290 291 291 291 290 290 290 290 289 288 287 286 285 284 283 283 283 283 284 284 284 284 285 286 287 288 289 290 290 290 291 292 293 294 294 295 295 294 293 293 292 291 290 290 289 287 286 283 281 278 276 275 274 273 272 272 272 272
282 283 284 284 284 285 286 287 288 290 291 291 292 293 292 292 291 290 289 289 289 288 287 286 284 283 283 283 284 284 284 285 286 286 287 288 289 290 291 291 291 292 293 293 293 294 295 295 295 294 293 292 291 290 289 288 286 285 283 280 278 276 274 273 272 272 272 272 272
284 284 284 284 284 284 285 286 288 289 290 291 292 293 293 292 291 290 288 287 288 288 287 286 284 283 283 283 284 284 285 286 286 287 287 288 290 291 292 292 292 293 294 293 293 294 294 295 295 295 293 292 290 289 289 287 286 284 282 280 278 276 275 274 273 273 272 273 273
286 286 286 286 286 285 286 287 288 289 289 290 292 293 293 292 292 289 286 285 286 287 287 286 285 284 284 284 284 284 285 286 287 288 289 289 290 291 292 293 293 293 294 294 293 293 294 295 295 294 293 291 290 289 288 287 285 284 282 281 279 277 276 275 274 273 273 274 274
288 288 288 288 288 288 289 290 291 291 292 292 293 294 294 294 293 290 286 284 285 286 287 286 286 285 285 285 285 285 286 286 287 289 290 290 290 291 292 293 293 293 293 294 293 293 293 295 294 293 292 291 289 288 288 286 285 284 282 281 280 278 277 275 275 274 274 275 276
288 289 290 291 291 291 292 293 294 295 295 296 296 296 296 296 296 293 290 288 288 288 288 287 287 286 286 286 286 287 287 288 288 288 289 290 291 291 292 292 292 292 292 293 293 292 293 294 294 293 292 291 289 288 287 286 285 284 283 281 280 279 278 276 275 275 275 275 277
289 290 292 292 293 293 294 295 295 296 296 297 298 298 297 297 298 296 293 292 291 290 289 289 288 287 287 287 287 288 288 288 289 289 289 290 291 292 293 292 292 292 292 293 292 292 291 292 293 293 292 290 288 287 287 286 285 284 283 282 281 280 278 277 276 276 276 276 277
289 291 293 293 293 293 294 295 296 296 296 298 298 297 296 295 297 298 296 295 294 293 292 291 289 288 288 287 287 287 288 288 288 289 289 290 291 292 293 292 292 291 291 292 292 291 290 291 292 292 291 289 288 287 286 286 285 284 283 283 281 280 279 278 278 277 277 277 277